Location: ??????????
(48.4699°N, 37.9573°E)
Time: 13:16:34
(UTC+00:00)

Cosmos 1844 - Pass Details

Date: 20 January 2021
Orbit: 821 x 869 km, 70.9° (Epoch: 27 February)

Event Time Altitude Azimuth Distance (km) Brightness Sun altitude
Rises 16:04:29 0° 193° (SSW) 3,371 7.1 -18.9°
Reaches altitude 10° 16:06:56 10° 190° (S) 2,448 6.3 -19.3°
Maximum altitude 16:12:26 59° 112° (ESE) 977 3.7 -20.2°
Enters shadow 16:14:48 34° 48° (NE) 1,380 4.4 -20.6°
